STARLINK-11161, 60124

Orbit data source: Space-Track

STARLINK-11161, 60124 is a payload satellite owned by SpaceX/Seattle (US) in LEO that was launched on Mon, 24 Jun 2024 UTC via an FALCON 9 launch vehicle from the Air Force Western Test Range (AFWTR). Payload-class satellites include a variety of spacecraft equipped with specific instruments for various scientific and technological missions. These include communications satellites like Starlink; space stations such as the ISS; scientific satellites like the Hubble; Earth observation satellites from companies like Planet Labs, Umbra, and HawkEye 360; GPS; miniature CubeSats for education and research; and military/defense satellites.

Loading next visibility...
Identifier
60124, 2024-118M
Orbit
LEO
Country
Flag of USUS
Related business
Manufacturer
SpaceX/Seattle
Mission
Operational spacecraft
Bus & Motor
STARLINK V2MD, Unknown motor
Mass
960 kg wet, ~910 kg dry
Launch date (UTC)
2024-06-24 (2 years ago)
Launch vehicle
FALCON 9
Launch site
Air Force Western Test Range (AFWTR)
Object type
Payload
Rocket body
Debris
Shape & HBR
Unknown shape, 18.1 m
Radar Cross Section
Large (>1 m²)

Expand to show TLE details & history
Last TLE update: 10 hours ago

TLE from 10 hours ago
0 STARLINK-11161
1 60124U 24118M   26035.17022811  .00000868  00000-0  12024-4 0  9992
2 60124  53.1590  26.8687 0001131 106.7268 253.3874 15.69709645 92725
Epoch: 2026-02-04T04:05Z
TLE epoch observation values (Epoch: 2026-02-04T04:05:07.708Z)
Latitude
-0.00004°
Longitude
-168.7541°
Altitude
360.861 km
Speed
7.694 km/s
True Right ascension
01h 47m 28s
True Declination
0° 00' 00"
Sunlit
Object was in daylight at epoch
Visualization orbit readout
Latitude
Unknown
Longitude
Unknown
Altitude
Unknown
Speed
Unknown
Apparent Right ascension
Unknown
Apparent Declination
Unknown
Sunlit
N/A
Visualization observer readout
Local Sidereal Time
15:34:53
Azimuth
Unknown
Elevation
Unknown
Doppler factor
Unknown
Orbital elements
Apogee altitude
360.751 km
Perigee altitude
359.227 km
Semi-major axis
6,738.126 km
Eccentricity
0.00011
Inclination
53.159°
RAAN
26.8687°
Arg. of periapsis
106.7268°
True anomaly
253.37498°
Mean anomaly
253.3874°
Eccentric anomaly
253.38119°
Mean motion
3.92405 °/min
Orbital period
91.74 mins
BSTAR
0.000012024
Loading maneuver chart data...
Computing Atmospheric mass density...
Loading historical data...
Loading historical data...
Loading historical data...
Loading historical data...
Loading historical data...
Loading historical data...
Loading historical data...

Documentation

Showing up to 5 results
|